sat.trackr.live / text

‹ back to catalog

STARLINK-35697

NORAD 66539 · 2025-265Z

PAYLOAD ACTIVE UNKNOWN

§ Identity

Operator
Country
US
Launch date
2025-11-19
Launch site
AFETR
Launch vehicle
Mass (kg)
RCS (m²)

Purposes: comms

External: N2YO · Heavens-Above · Gunter

§ Orbital elements

Epoch: 2026-09-20T06:32:37.608864Z

Period
94.27 min
Inclination
42.9986°
Eccentricity
0.0001602
Mean motion
15.27587699 rev/d
Perigee alt
481.9 km
Apogee alt
484.1 km
Semi-major
6,861.2 km
B*
4.4682e-4
RAAN
258.9182°
Arg perigee
269.5856°
Mean anomaly
90.4812°
Rev number
4,687

§ Raw data

STARLINK-356971 66539U 25265Z   26263.27265751  .00012057  00000+0  44682-3 0  99942 66539  42.9986 258.9182 0001602 269.5856  90.4812 15.27587699 46872

JSON: /api/v1/satellites/66539 · /tle

For live sub-satellite position, see the globe view (requires WebGL).

§ Visibility from observer

Set your observer location to see the next 7 days of passes ≥ 10°. The values pass through the URL so the page stays shareable.

No JS? Fill the form by hand. The geolocation button needs JavaScript.